Time,TemperatureF,DewpointF,PressureIn,WindDirection,WindDirectionDegrees,WindSpeedMPH,WindSpeedGustMPH,Humidity,HourlyPrecipIn,Conditions,Clouds,dailyrainin,SolarRadiationWatts/m^2,SoftwareType,DateUTC
2013-07-26 00:00:00,58.0,52.0,-100.00,SE,135,0.0,-999.0,80,-99.99,,,-99.99,0.000000,,2013-07-26 04:00:00,
2013-07-26 00:53:00,58.0,52.0,-100.00,SE,135,0.0,-999.0,80,-99.99,,,-99.99,0.000000,,2013-07-26 04:53:00,
2013-07-26 01:00:00,61.0,51.0,-100.00,ESE,112,0.0,-999.0,69,-99.99,,,-99.99,0.000000,,2013-07-26 05:00:00,
2013-07-26 01:43:00,61.0,51.0,-100.00,ESE,112,0.0,-999.0,69,-99.99,,,-99.99,0.000000,,2013-07-26 05:43:00,
2013-07-26 01:52:00,61.0,51.0,-100.00,ESE,112,0.0,-999.0,69,-99.99,,,-99.99,0.000000,,2013-07-26 05:52:00,
2013-07-26 02:00:00,61.0,51.0,-100.00,SE,135,0.0,-999.0,70,-99.99,,,-99.99,0.000000,,2013-07-26 06:00:00,
2013-07-26 02:43:00,61.0,51.0,-100.00,SE,135,0.0,-999.0,70,-99.99,,,-99.99,0.000000,,2013-07-26 06:43:00,
2013-07-26 02:52:00,61.0,51.0,-100.00,SE,135,0.0,-999.0,70,-99.99,,,-99.99,0.000000,,2013-07-26 06:52:00,
2013-07-26 03:00:00,62.0,53.0,-100.00,South,180,1.0,-999.0,71,-99.99,,,-99.99,0.000000,,2013-07-26 07:00:00,
2013-07-26 03:43:00,62.0,53.0,-100.00,South,180,1.0,-999.0,71,-99.99,,,-99.99,0.000000,,2013-07-26 07:43:00,
2013-07-26 03:53:00,62.0,53.0,-100.00,South,180,1.0,-999.0,71,-99.99,,,-99.99,0.000000,,2013-07-26 07:53:00,
2013-07-26 07:00:00,62.0,54.0,-100.00,South,180,1.0,-999.0,75,-99.99,,,-99.99,5.800000,,2013-07-26 11:00:00,
2013-07-26 07:43:00,62.0,54.0,-100.00,South,180,1.0,-999.0,75,-99.99,,,-99.99,5.800000,,2013-07-26 11:43:00,
2013-07-26 07:52:00,62.0,54.0,-100.00,South,180,1.0,-999.0,75,-99.99,,,-99.99,5.800000,,2013-07-26 11:52:00,
2013-07-26 09:00:00,65.0,55.0,-100.00,South,180,4.0,-999.0,68,-99.99,,,-99.99,169.360001,,2013-07-26 13:00:00,
2013-07-26 09:43:00,65.0,55.0,-100.00,South,180,4.0,-999.0,68,-99.99,,,-99.99,169.360001,,2013-07-26 13:43:00,
2013-07-26 09:53:00,65.0,55.0,-100.00,South,180,4.0,-999.0,68,-99.99,,,-99.99,169.360001,,2013-07-26 13:53:00,
2013-07-26 10:00:00,66.0,55.0,-100.00,South,180,4.0,-999.0,67,-99.99,,,-99.99,165.880005,,2013-07-26 14:00:00,
2013-07-26 10:43:00,66.0,55.0,-100.00,South,180,4.0,-999.0,67,-99.99,,,-99.99,165.880005,,2013-07-26 14:43:00,
2013-07-26 10:53:00,66.0,55.0,-100.00,South,180,4.0,-999.0,67,-99.99,,,-99.99,165.880005,,2013-07-26 14:53:00,
2013-07-26 11:00:00,68.0,56.0,-100.00,SSW,202,6.0,-999.0,65,-99.99,,,-99.99,212.279999,,2013-07-26 15:00:00,
2013-07-26 11:43:00,68.0,56.0,-100.00,SSW,202,6.0,-999.0,65,-99.99,,,-99.99,212.279999,,2013-07-26 15:43:00,
2013-07-26 11:53:00,68.0,56.0,-100.00,SSW,202,6.0,-999.0,65,-99.99,,,-99.99,212.279999,,2013-07-26 15:53:00,
2013-07-26 13:00:00,72.0,56.0,-100.00,SSW,202,5.0,-999.0,58,-99.99,,,-99.99,453.559998,,2013-07-26 17:00:00,
2013-07-26 13:43:00,72.0,56.0,-100.00,SSW,202,5.0,-999.0,58,-99.99,,,-99.99,453.559998,,2013-07-26 17:43:00,
2013-07-26 13:53:00,72.0,56.0,-100.00,SSW,202,5.0,-999.0,58,-99.99,,,-99.99,453.559998,,2013-07-26 17:53:00,
2013-07-26 15:00:00,73.0,55.0,-100.00,SSW,202,8.0,-999.0,53,-99.99,,,-99.99,302.760010,,2013-07-26 19:00:00,
2013-07-26 15:43:00,73.0,55.0,-100.00,SSW,202,8.0,-999.0,53,-99.99,,,-99.99,302.760010,,2013-07-26 19:43:00,
2013-07-26 15:52:00,73.0,55.0,-100.00,SSW,202,8.0,-999.0,53,-99.99,,,-99.99,302.760010,,2013-07-26 19:52:00,
2013-07-26 17:00:00,72.0,57.0,-100.00,SSW,202,4.0,-999.0,57,-99.99,,,-99.99,199.520004,,2013-07-26 21:00:00,
2013-07-26 17:53:00,72.0,57.0,-100.00,SSW,202,4.0,-999.0,57,-99.99,,,-99.99,199.520004,,2013-07-26 21:53:00,
2013-07-26 18:00:00,73.0,57.0,-100.00,South,180,6.0,-999.0,56,-99.99,,,-99.99,264.480011,,2013-07-26 22:00:00,
2013-07-26 18:43:00,73.0,57.0,-100.00,South,180,6.0,-999.0,56,-99.99,,,-99.99,264.480011,,2013-07-26 22:43:00,
2013-07-26 18:53:00,73.0,57.0,-100.00,South,180,6.0,-999.0,56,-99.99,,,-99.99,264.480011,,2013-07-26 22:53:00,
2013-07-26 19:00:00,72.0,56.0,-100.00,SSW,202,7.0,-999.0,57,-99.99,,,-99.99,109.040001,,2013-07-26 23:00:00,
2013-07-26 19:43:00,72.0,56.0,-100.00,SSW,202,7.0,-999.0,57,-99.99,,,-99.99,109.040001,,2013-07-26 23:43:00,
2013-07-26 19:53:00,72.0,56.0,-100.00,SSW,202,7.0,-999.0,57,-99.99,,,-99.99,109.040001,,2013-07-26 23:53:00,
2013-07-26 20:00:00,66.0,59.0,-100.00,SSW,202,8.0,-999.0,76,-99.99,,,-99.99,19.719999,,2013-07-27 00:00:00,
2013-07-26 20:43:00,66.0,59.0,-100.00,SSW,202,8.0,-999.0,76,-99.99,,,-99.99,19.719999,,2013-07-27 00:43:00,
2013-07-26 20:53:00,66.0,59.0,-100.00,SSW,202,8.0,-999.0,76,-99.99,,,-99.99,19.719999,,2013-07-27 00:53:00,
2013-07-26 21:00:00,66.0,58.0,-100.00,SSW,202,5.0,-999.0,75,-99.99,,,-99.99,11.600000,,2013-07-27 01:00:00,
2013-07-26 21:44:00,66.0,58.0,-100.00,SSW,202,5.0,-999.0,75,-99.99,,,-99.99,11.600000,,2013-07-27 01:44:00,
2013-07-26 21:53:00,66.0,58.0,-100.00,SSW,202,5.0,-999.0,75,-99.99,,,-99.99,11.600000,,2013-07-27 01:53:00,
2013-07-26 22:00:00,66.0,59.0,-100.00,SSW,202,6.0,-999.0,78,-99.99,,,-99.99,1.160000,,2013-07-27 02:00:00,
2013-07-26 22:43:00,66.0,59.0,-100.00,SSW,202,6.0,-999.0,78,-99.99,,,-99.99,1.160000,,2013-07-27 02:43:00,
2013-07-26 22:53:00,66.0,59.0,-100.00,SSW,202,6.0,-999.0,78,-99.99,,,-99.99,1.160000,,2013-07-27 02:53:00,
2013-07-26 23:00:00,65.0,59.0,-100.00,SSW,202,6.0,-999.0,80,-99.99,,,-99.99,0.000000,,2013-07-27 03:00:00,
2013-07-26 23:44:00,65.0,59.0,-100.00,SSW,202,6.0,-999.0,80,-99.99,,,-99.99,0.000000,,2013-07-27 03:44:00,
2013-07-26 23:52:00,65.0,59.0,-100.00,SSW,202,6.0,-999.0,80,-99.99,,,-99.99,0.000000,,2013-07-27 03:52:00,